Weather History for KATS - March, 2013

Change the Weather History Date:

Monday, March 4, 2013

  Actual Average Record
Temperature  
Mean Temperature 64 °F -  
Max Temperature 78 °F 65 °F 86 °F (2009)
Min Temperature 46 °F 29 °F 11 °F (1971)
Growing Degree Days 14 (Base 50)    
Moisture  
Dew Point 18 °F    
Average Humidity 17    
Maximum Humidity 50    
Minimum Humidity 8    
Precipitation  
Precipitation 0.00 in - - ()
Sea Level Pressure  
Sea Level Pressure 29.83 in    
Wind  
Wind Speed 18 mph (West)    
Max Wind Speed 37 mph    
Max Gust Speed 51 mph    
Visibility 10 miles    
Events      
Averages and records for this station are not official NWS values.
T = Trace of Precipitation, MM = Missing Value Source: NWS Daily Summary

Daily Weather History Graph

Daily Weather History Graph

Search for Another Location

Airport or City:

Trip Planner

Search our weather history database for the weather conditions in past years. The results will help you decide how hot, cold, wet, or windy it might be!

Date:

Astronomy

Mar. 04, 2013 Rise Set
Actual Time 6:21 AM MST 5:57 PM MST
Civil Twilight 5:57 AM MST 6:22 PM MST
Nautical Twilight 5:28 AM MST 6:51 PM MST
Astronomical Twilight 4:59 AM MST 7:19 PM MST
Moon 12:20 AM MST (3/4) 10:55 AM MST (3/4)
Length of Visible Light 12h 25m
Length of Day
11h 35m
Waning Gibbous, 51% of the Moon is Illuminated
Mar 4
Waning Gibbous
Mar 4
Last Quarter
Mar 11
New
Mar 19
First Quarter
Mar 27
Full

Hourly Weather History & Observations

Time (MST) Temp. Windchill Dew Point Humidity Pressure Visibility Wind Dir Wind Speed Gust Speed Precip Events Conditions
12:15 AM 64.4 °F - 19.4 °F 18% 29.83 in 10.0 mi West 13.8 mph - N/A   Clear
12:35 AM 62.6 °F - 19.4 °F 19% 29.82 in 10.0 mi West 10.4 mph - N/A   Clear
12:55 AM 60.8 °F - 19.4 °F 20% 29.83 in 10.0 mi WSW 10.4 mph - N/A   Clear
1:15 AM 64.4 °F - 15.8 °F 15% 29.82 in 10.0 mi West 15.0 mph - N/A   Clear
1:35 AM 62.6 °F - 15.8 °F 16% 29.83 in 10.0 mi West 15.0 mph - N/A   Clear
1:55 AM 66.2 °F - 19.4 °F 17% 29.82 in 10.0 mi West 20.7 mph 25.3 mph N/A   Clear
2:15 AM 66.2 °F - 21.2 °F 18% 29.80 in 10.0 mi West 17.3 mph - N/A   Clear
2:35 AM 64.4 °F - 19.4 °F 18% 29.80 in 10.0 mi West 25.3 mph 31.1 mph N/A   Clear
2:55 AM 66.2 °F - 19.4 °F 17% 29.80 in 10.0 mi West 18.4 mph 27.6 mph N/A   Clear
3:15 AM 66.2 °F - 19.4 °F 17% 29.79 in 10.0 mi West 21.9 mph 25.3 mph N/A   Clear
3:35 AM 66.2 °F - 21.2 °F 18% 29.79 in 10.0 mi West 15.0 mph - N/A   Clear
3:55 AM 60.8 °F - 21.2 °F 22% 29.80 in 10.0 mi West 10.4 mph - N/A   Clear
4:15 AM 60.8 °F - 23.0 °F 23% 29.80 in 10.0 mi WSW 11.5 mph - N/A   Clear
4:35 AM 57.2 °F - 21.2 °F 25% 29.81 in 10.0 mi WSW 8.1 mph - N/A   Clear
5:15 AM 55.4 °F - 21.2 °F 26% 29.82 in 10.0 mi NNW 9.2 mph - N/A   Clear
5:35 AM 51.8 °F - 19.4 °F 28% 29.82 in 10.0 mi NNW 9.2 mph - N/A   Clear
5:55 AM 53.6 °F - 19.4 °F 26% 29.81 in 10.0 mi NNW 8.1 mph - N/A   Clear
6:15 AM 53.6 °F - 19.4 °F 26% 29.82 in 10.0 mi West 5.8 mph - N/A   Clear
6:35 AM 51.8 °F - 19.4 °F 28% 29.82 in 10.0 mi WSW 11.5 mph - N/A   Clear
6:55 AM 53.6 °F - 21.2 °F 28% 29.83 in 10.0 mi North - - N/A   Clear
7:15 AM 55.4 °F - 21.2 °F 26% 29.84 in 10.0 mi WSW 10.4 mph - N/A   Clear
7:35 AM 62.6 °F - 23.0 °F 22% 29.85 in 10.0 mi WSW 13.8 mph - N/A   Clear
7:55 AM 66.2 °F - 21.2 °F 18% 29.85 in 10.0 mi WSW 15.0 mph - N/A   Clear
8:15 AM 66.2 °F - 19.4 °F 17% 29.85 in 10.0 mi WSW 12.7 mph 21.9 mph N/A   Clear
8:35 AM 68.0 °F - 19.4 °F 16% 29.84 in 10.0 mi WSW 13.8 mph 18.4 mph N/A   Clear
8:55 AM 69.8 °F - 19.4 °F 15% 29.83 in 10.0 mi West 20.7 mph 26.5 mph N/A   Clear
9:15 AM 71.6 °F - 15.8 °F 12% 29.82 in 10.0 mi WSW 24.2 mph 32.2 mph N/A   Clear
9:35 AM 73.4 °F - 10.4 °F 9% 29.82 in 10.0 mi West 29.9 mph 39.1 mph N/A   Clear
9:55 AM 75.2 °F - 8.6 °F 8% 29.81 in 10.0 mi West 29.9 mph 34.5 mph N/A   Clear
10:15 AM 75.2 °F - 8.6 °F 8% 29.81 in 10.0 mi West 29.9 mph 36.8 mph N/A   Clear
10:35 AM 75.2 °F - 8.6 °F 8% 29.80 in 10.0 mi West 27.6 mph 38.0 mph N/A   Clear
10:55 AM 75.2 °F - 8.6 °F 8% 29.79 in 10.0 mi West 29.9 mph 39.1 mph N/A   Clear
11:15 AM 77.0 °F - 12.2 °F 9% 29.79 in 10.0 mi West 28.8 mph 38.0 mph N/A   Clear
11:55 AM 77.0 °F - 15.8 °F 10% 29.77 in 10.0 mi WSW 26.5 mph 38.0 mph N/A   Clear
12:15 PM 77.0 °F - 14.0 °F 9% 29.76 in 10.0 mi WSW 26.5 mph 41.4 mph N/A   Clear
12:35 PM 77.0 °F - 15.8 °F 10% 29.74 in 10.0 mi WSW 28.8 mph 39.1 mph N/A   Clear
12:55 PM 77.0 °F - 17.6 °F 11% 29.73 in 10.0 mi WSW 27.6 mph 39.1 mph N/A   Clear
1:15 PM 78.8 °F - 19.4 °F 11% 29.72 in 10.0 mi WSW 29.9 mph 41.4 mph N/A   Clear
1:35 PM 77.0 °F - 19.4 °F 12% 29.72 in 10.0 mi WSW 33.4 mph 50.6 mph N/A   Clear
1:55 PM 77.0 °F - 19.4 °F 12% 29.72 in 9.0 mi West 26.5 mph 39.1 mph N/A   Clear
2:15 PM 77.0 °F - 17.6 °F 11% 29.72 in 9.0 mi West 29.9 mph 41.4 mph N/A   Clear
2:35 PM 77.0 °F - 17.6 °F 11% 29.72 in 10.0 mi West 32.2 mph 42.6 mph N/A   Clear
2:55 PM 78.8 °F - 17.6 °F 10% 29.71 in 10.0 mi WSW 31.1 mph 36.8 mph N/A   Clear
3:15 PM 78.8 °F - 17.6 °F 10% 29.71 in 10.0 mi West 25.3 mph 34.5 mph N/A   Clear
3:35 PM 78.8 °F - 15.8 °F 9% 29.71 in 10.0 mi West 23.0 mph 34.5 mph N/A   Clear
3:55 PM 78.8 °F - 14.0 °F 9% 29.71 in 10.0 mi West 29.9 mph 41.4 mph N/A   Clear
4:15 PM 77.0 °F - 14.0 °F 9% 29.71 in 10.0 mi West 24.2 mph 33.4 mph N/A   Clear
4:35 PM 77.0 °F - 15.8 °F 10% 29.72 in 10.0 mi West 21.9 mph 33.4 mph N/A   Clear
4:55 PM 77.0 °F - 14.0 °F 9% 29.73 in 10.0 mi West 25.3 mph - N/A   Clear
5:15 PM 75.2 °F - 8.6 °F 8% 29.74 in 10.0 mi West 31.1 mph 39.1 mph N/A   Clear
5:35 PM 73.4 °F - 10.4 °F 9% 29.76 in 10.0 mi West 21.9 mph 33.4 mph N/A   Clear
5:55 PM 73.4 °F - 8.6 °F 8% 29.77 in 7.0 mi West 28.8 mph 34.5 mph N/A   Clear
6:15 PM 71.6 °F - 8.6 °F 9% 29.79 in 8.0 mi West 23.0 mph 34.5 mph N/A   Clear
6:35 PM 68.0 °F - 21.2 °F 17% 29.83 in 10.0 mi NNW 12.7 mph - N/A   Clear
6:55 PM 68.0 °F - 19.4 °F 16% 29.85 in 10.0 mi NNW 16.1 mph 19.6 mph N/A   Clear
7:35 PM 64.4 °F - 19.4 °F 18% 29.88 in 10.0 mi North 10.4 mph 16.1 mph N/A   Clear
7:55 PM 64.4 °F - 21.2 °F 19% 29.89 in 10.0 mi NNW 21.9 mph 28.8 mph N/A   Clear
8:15 PM 62.6 °F - 23.0 °F 22% 29.90 in 10.0 mi NW 15.0 mph - N/A   Clear
8:35 PM 62.6 °F - 23.0 °F 22% 29.91 in 10.0 mi NW 15.0 mph - N/A   Clear
8:55 PM 59.0 °F - 21.2 °F 23% 29.93 in 10.0 mi NW 11.5 mph - N/A   Clear
9:15 PM 55.4 °F - 21.2 °F 26% 29.95 in 10.0 mi NW 10.4 mph - N/A   Clear
9:35 PM 55.4 °F - 21.2 °F 26% 29.97 in 10.0 mi NW 13.8 mph - N/A   Clear
9:55 PM 57.2 °F - 19.4 °F 23% 29.99 in 10.0 mi NNW 15.0 mph - N/A   Clear
10:15 PM 57.2 °F - 17.6 °F 21% 30.01 in 10.0 mi NNW 16.1 mph - N/A   Clear
10:35 PM 57.2 °F - 15.8 °F 20% 30.02 in 10.0 mi NNW 12.7 mph - N/A   Clear
10:55 PM 55.4 °F - 15.8 °F 21% 30.03 in 10.0 mi NNW 11.5 mph - N/A   Clear
11:15 PM 53.6 °F - 17.6 °F 24% 30.06 in 10.0 mi North 25.3 mph 31.1 mph N/A   Clear
11:35 PM 51.8 °F - 32.0 °F 47% 30.09 in 4.0 mi NE 33.4 mph 40.3 mph N/A   Haze
11:55 PM 46.4 °F 36.3 °F 28.4 °F 50% 30.14 in 2.0 mi NE 36.8 mph 43.7 mph N/A   Haze